Seeley, CA

7:59 AM PDT on October 01, 2016 (GMT -0700)
El Centro Naval Air Facility

Weather History for KNJK - February, 2013

Change the Weather History Date:

Saturday, February 2, 2013

  Actual Average Record
Temperature  
Mean Temperature 64 °F -  
Max Temperature 79 °F 68 °F 80 °F (2015)
Min Temperature 50 °F 44 °F 30 °F (2011)
Growing Degree Days 14 (Base 50)    
Moisture  
Dew Point 39 °F    
Average Humidity 44    
Maximum Humidity 69    
Minimum Humidity 17    
Precipitation  
Precipitation 0.00 in - - ()
Sea Level Pressure  
Sea Level Pressure 30.20 in    
Wind  
Wind Speed 3 mph (WNW)    
Max Wind Speed 6 mph    
Max Gust Speed -    
Visibility 10 miles    
Events      
Averages and records for this station are not official NWS values.
T = Trace of Precipitation, MM = Missing Value Source: NWS Daily Summary

Daily Weather History Graph

Daily Weather History Graph

Search for Another Location

Airport or City:

Trip Planner

Search our weather history database for the weather conditions in past years. The results will help you decide how hot, cold, wet, or windy it might be!

Date:

Astronomy

Feb. 02, 2013 Rise Set
Actual Time 6:36 AM PST 5:16 PM PST
Civil Twilight 6:10 AM PST 5:42 PM PST
Nautical Twilight 5:41 AM PST 6:11 PM PST
Astronomical Twilight 5:12 AM PST 6:40 PM PST
Moon No Moon Rise 10:15 AM PST (2/2)
Length of Visible Light 11h 31m
Length of Day
10h 39m
Waning Gibbous, 58% of the Moon is Illuminated
Feb 2
Waning Gibbous
Feb 3
Last Quarter
Feb 9
New
Feb 17
First Quarter
Feb 25
Full

Hourly Weather History & Observations

Time (PST) Temp. Dew Point Humidity Pressure Visibility Wind Dir Wind Speed Gust Speed Precip Events Conditions
12:56 AM 53.1 °F 41.0 °F 64% 30.23 in 10.0 mi WNW 3.5 mph - N/A   Clear
1:56 AM 53.1 °F 41.0 °F 64% 30.22 in 10.0 mi West 4.6 mph - N/A   Clear
2:56 AM 52.0 °F 42.1 °F 69% 30.22 in 10.0 mi West 5.8 mph - N/A   Clear
3:56 AM 50.0 °F 39.9 °F 68% 30.22 in 10.0 mi West 4.6 mph - N/A   Clear
4:56 AM 50.0 °F 39.9 °F 68% 30.23 in 10.0 mi West 3.5 mph - N/A   Clear
5:56 AM 51.1 °F 39.9 °F 66% 30.23 in 10.0 mi West 5.8 mph - N/A   Clear
6:56 AM 50.0 °F 39.9 °F 68% 30.24 in 10.0 mi West 4.6 mph - N/A   Mostly Cloudy
7:56 AM 54.0 °F 42.1 °F 64% 30.26 in 10.0 mi WSW 4.6 mph - N/A   Mostly Cloudy
8:56 AM 60.1 °F 43.0 °F 53% 30.27 in 10.0 mi West 3.5 mph - N/A   Clear
9:56 AM 66.9 °F 41.0 °F 39% 30.27 in 10.0 mi West 3.5 mph - N/A   Scattered Clouds
10:56 AM 73.0 °F 37.9 °F 28% 30.26 in 10.0 mi North 4.6 mph - N/A   Scattered Clouds
11:56 AM 75.0 °F 34.0 °F 22% 30.23 in 10.0 mi Calm Calm - N/A   Scattered Clouds
12:56 PM 78.1 °F 33.1 °F 19% 30.19 in 10.0 mi Variable 3.5 mph - N/A   Scattered Clouds
1:56 PM 79.0 °F 32.0 °F 18% 30.17 in 10.0 mi North 5.8 mph - N/A   Scattered Clouds
2:56 PM 79.0 °F 30.0 °F 17% 30.16 in 10.0 mi NNW 4.6 mph - N/A   Scattered Clouds
3:56 PM 77.0 °F 30.9 °F 19% 30.15 in 10.0 mi NE 3.5 mph - N/A   Clear
4:56 PM 73.9 °F 34.0 °F 23% 30.15 in 10.0 mi Calm Calm - N/A   Clear
5:56 PM 72.0 °F 35.1 °F 26% 30.15 in 10.0 mi Calm Calm - N/A   Clear
6:03 PM - - N/A% - - North - - N/A   Unknown
6:56 PM 70.0 °F 42.1 °F 36% 30.17 in 10.0 mi Calm Calm - N/A   Scattered Clouds
7:56 PM 66.9 °F 41.0 °F 39% 30.17 in 10.0 mi Calm Calm - N/A   Scattered Clouds
8:56 PM 64.0 °F 41.0 °F 43% 30.17 in 10.0 mi Calm Calm - N/A   Clear
9:56 PM 64.0 °F 43.0 °F 46% 30.16 in 10.0 mi WNW 3.5 mph - N/A   Mostly Cloudy
10:56 PM 66.0 °F 43.0 °F 43% 30.16 in 10.0 mi Calm Calm - N/A   Partly Cloudy
11:56 PM 64.0 °F 43.0 °F 46% 30.15 in 10.0 mi Calm Calm - N/A   Mostly Cloudy